Flag for Canada Weather past 2 weeks in Labrador City, Newfoundland and Labrador, Canada

Now
50 °F

Overcast.


Feels Like: 46 °F
Forecast: 46 / 57 °F
Wind: 10 mph from West

Location: Wabush Lake

Current Time: Jul 25, 2014 at 9:18:12 AM

Latest Report: Jul 25, 2014 at 8:00 AM


Visibility: 15 mi

Pressure: 29.71 "Hg

Humidity: 88%

Dew point: 46 °F

Location of Labrador CityLocation

Historic Weather in Labrador City — Graph

°F

Labrador City temperature yesterday

Maximum temperature yesterday: 59 °F (at 4:00 PM)
Minimum temperature yesterday: 43 °F (at 5:00 AM)
Average temperature yesterday: 52 °F

Past Weeks' High & Low Weather Summary

 TemperatureHumidityPressure
High82 °F (Jul 21, 5:00 PM)100% (Jul 13, 12:00 AM)30.19 "Hg (Jul 13, 12:00 AM)
Low43 °F (Jul 24, 5:00 AM)32% (Jul 20, 7:00 PM)29.31 "Hg (Jul 23, 10:00 AM)
Average60 °F75%29.84 "Hg
* Reported Jul 10 8:00 AM — Jul 25 8:00 AM, Labrador City, Weather by CustomWeather, © 2014

Note: Actual official high and low records may vary slightly from our data, if they occured in-between our weather recording intervals... More about our weather records

Advertising

Labrador City weather history for previous 24 hours

 ConditionsComfort  
Time TempWeatherWind HumidityBarometerVisibility
8:00 AM
Jul 25
50 °FOvercast.10 mph88%29.71 "Hg15 mi
7:00 AM50 °FPassing clouds.7 mph94%29.70 "Hg15 mi
6:00 AM50 °FPassing clouds.8 mph88%29.70 "Hg15 mi
5:00 AM50 °FSprinkles. Partly cloudy.5 mph88%29.70 "Hg12 mi
4:00 AM52 °FSprinkles. Mostly cloudy.8 mph94%29.70 "Hg10 mi
3:00 AM50 °FSprinkles. Overcast.7 mph94%29.70 "Hg15 mi
2:00 AM52 °FSprinkles. Overcast.5 mph88%29.71 "Hg15 mi
1:00 AM52 °FOvercast.2 mph82%29.72 "Hg15 mi
12:00 AM50 °FMostly cloudy.5 mph88%29.72 "Hg15 mi
11:00 PM
Jul 24
52 °FBroken clouds.8 mph77%29.73 "Hg15 mi
10:00 PM54 °FPartly sunny.6 mph67%29.73 "Hg15 mi
9:00 PM55 °FScattered clouds.6 mph67%29.74 "Hg15 mi
8:00 PM59 °FScattered clouds.5 mph55%29.73 "Hg15 mi
7:00 PM59 °FPartly sunny.8 mph55%29.73 "Hg15 mi
6:00 PM59 °FPartly sunny.7 mph51%29.74 "Hg15 mi
5:00 PM59 °FPassing clouds.8 mph51%29.75 "Hg15 mi
4:00 PM59 °FPassing clouds.12 mph51%29.77 "Hg15 mi
3:00 PM55 °FPartly sunny.8 mph55%29.79 "Hg15 mi
2:00 PM55 °FPartly sunny.14 mph59%29.79 "Hg15 mi
1:00 PM54 °FOvercast.8 mph54%29.80 "Hg15 mi
12:00 PM52 °FOvercast.6 mph62%29.80 "Hg15 mi
11:00 AM50 °FOvercast.7 mph71%29.81 "Hg15 mi
10:00 AM50 °FPartly sunny.5 mph67%29.80 "Hg15 mi
9:00 AM50 °FPartly sunny.8 mph67%29.79 "Hg15 mi
Weather by CustomWeather, © 2014

See weather overviewHow to use our weather pages